1531558800.64,30760,17.94,73950.3,4.45,4.49,4.57,0,*75
1531558801.87,30761,17.94,73948.3,4.47,4.75,4.85,0,*76
1531558803.1,30762,17.94,73954.0,4.49,4.93,5.05,0,*7A
1531558804.31,30763,17.94,73958.0,4.51,5.07,5.19,0,*73
1531558805.52,30764,17.94,73978.8,4.53,5.01,5.11,0,*78
1531558806.71,30765,17.94,73982.3,4.53,5.19,5.19,0,*78
1531558807.91,30766,17.94,73980.0,4.55,5.37,5.37,0,*7D
1531558809.08,30767,17.94,73974.3,4.57,5.29,5.29,0,*7E
1531558810.31,30768,17.94,73970.0,4.57,4.75,4.75,0,*71
1531558811.52,30769,17.94,73986.0,4.57,4.85,4.75,0,*7F
1531558812.7,30770,17.94,73978.3,4.61,4.11,4.23,0,*7C
1531558813.91,30771,17.94,73990.5,4.61,3.75,3.85,0,*73
1531558815.13,30772,17.94,73962.3,4.61,2.69,2.59,0,*7C
1531558816.36,30773,17.94,73946.0,4.55,3.75,3.85,0,*76
1531558817.6,30774,17.94,73956.8,4.55,4.71,4.81,0,*71
1531558818.83,30775,17.94,73968.0,4.57,4.63,4.71,0,*7E
1531558820.02,30776,17.94,73968.3,4.57,5.27,5.29,0,*70
1531558821.2,30777,17.94,73970.5,4.61,5.29,5.33,0,*71
1531558822.43,30778,17.94,73970.5,4.63,5.01,5.07,0,*71
1531558823.64,30779,17.94,73980.3,4.65,4.89,4.97,0,*7F
1531558824.84,30780,17.94,73972.3,4.63,4.41,4.49,0,*78
1531558826.05,30781,17.94,73976.5,4.65,4.05,4.07,0,*75
1531558827.3,30782,17.94,73978.5,4.63,3.49,3.49,0,*72
1531558828.55,30783,17.94,73978.5,4.63,2.73,2.73,0,*73
1531558829.8,30784,17.94,73978.8,4.63,2.73,2.73,0,*74
1531558831.03,30785,17.94,73974.0,4.57,3.03,3.07,0,*76
1531558832.21,30786,17.94,73972.3,4.57,2.91,2.91,0,*71
1531558833.46,30787,17.94,73960.0,4.55,2.47,2.47,0,*72
1531558834.7,30788,17.94,73962.5,4.53,2.51,2.51,0,*7B
1531558835.94,30789,17.94,73956.8,4.51,2.77,2.73,0,*7C
1531558837.17,30790,17.94,73954.0,4.49,2.13,2.09,0,*72
1531558838.43,30791,17.94,73952.8,4.47,2.25,2.25,0,*76
1531558839.67,30792,17.94,73958.5,4.47,2.73,2.73,0,*75
1531558840.9,30793,17.94,73960.5,4.45,2.47,2.55,0,*75
1531558842.15,30794,17.94,73970.8,4.43,2.55,2.39,0,*7D
1531558843.33,30795,17.94,73934.8,4.41,2.65,2.65,0,*74
1531558844.53,30796,17.94,73938.0,4.43,3.63,3.63,0,*75
1531558845.76,30797,17.94,73942.5,4.43,4.31,4.23,0,*77
1531558846.94,30798,17.94,73944.3,4.41,4.45,4.41,0,*7D
1531558848.18,30799,17.94,73952.0,4.43,4.67,4.59,0,*77
1531558849.38,30800,17.94,73952.5,4.43,4.41,4.45,0,*71
1531558850.58,30801,17.94,73956.8,4.43,4.11,4.11,0,*74
1531558851.78,30802,17.94,73962.5,4.45,3.85,3.97,0,*72
1531558852.96,30803,17.94,73958.8,4.45,4.11,4.19,0,*78
1531558854.18,30804,17.94,73968.3,4.47,3.81,3.79,0,*72
1531558855.39,30805,17.94,73940.8,4.45,3.03,2.95,0,*78
1531558856.56,30806,17.94,73962.0,4.45,3.59,3.59,0,*75
1531558857.74,30807,17.94,73964.0,4.45,2.95,2.91,0,*70
1531558858.91,30808,17.94,73964.8,4.41,2.91,2.91,0,*7F
1531558860.14,30809,17.94,73972.0,4.41,3.11,3.11,0,*7E
1531558861.37,30810,17.94,73974.5,4.41,2.13,2.01,0,*75
1531558862.61,30811,17.94,73962.5,4.35,1.67,1.63,0,*70
1531558863.86,30812,17.94,73960.5,4.35,1.29,0.95,0,*41
1531558865.13,30813,17.94,73970.5,4.31,1.21,1.13,0,*73
1531558866.39,30814,17.94,73978.0,4.31,1.29,1.21,0,*7D
1531558867.61,30815,17.94,73974.3,4.27,1.51,1.51,0,*73
1531558868.85,30816,17.94,73990.3,4.25,1.89,1.97,0,*7D
1531558870.03,30817,17.94,73992.3,4.23,1.83,1.83,0,*75
1531558871.25,30818,17.94,73994.0,4.23,1.71,1.71,0,*7A
1531558872.5,30819,17.94,73972.8,4.21,2.43,2.43,0,*79
1531558873.74,30820,17.94,73990.5,4.19,2.17,2.17,0,*78
1531558874.96,30821,17.94,73986.3,4.19,2.05,2.05,0,*79
1531558876.18,30822,17.94,73958.5,4.19,1.93,1.93,0,*7A
1531558877.41,30823,17.94,73964.3,4.17,2.27,2.21,0,*73
1531558878.66,30824,17.94,73978.5,4.13,1.51,1.55,0,*72
1531558879.92,30825,17.94,73976.0,4.13,1.33,1.33,0,*77
1531558881.18,30826,17.94,73974.5,4.09,1.29,1.25,0,*73
1531558882.43,30827,17.94,73980.0,4.09,1.59,1.59,0,*7E
1531558883.65,30828,17.94,73966.5,4.07,1.93,1.93,0,*7F
1531558884.82,30829,17.94,73962.8,4.07,2.31,2.31,0,*7E
1531558886.05,30830,17.94,73962.3,4.07,2.55,2.55,0,*76
1531558887.29,30831,17.94,73960.3,4.07,3.41,3.41,0,*77
1531558888.47,30832,17.94,73960.3,4.07,3.93,3.93,0,*74
1531558889.71,30833,17.94,73962.3,4.07,3.41,3.49,0,*7D
1531558890.94,30834,17.94,73960.3,4.07,3.71,3.71,0,*72
1531558892.19,30835,17.94,73980.3,4.09,3.79,3.79,0,*7D
1531558893.42,30836,17.94,73954.8,4.11,3.19,3.15,0,*7B
1531558894.65,30837,17.94,73948.3,4.11,2.81,2.73,0,*7B
1531558895.9,30838,17.94,73966.8,4.09,1.97,1.89,0,*7F
1531558897.14,30839,17.94,73966.5,4.07,1.13,1.21,0,*7E
1531558898.41,30840,17.94,73966.0,4.05,1.37,1.37,0,*73
1531558899.65,30841,17.94,73964.3,4.05,1.59,1.59,0,*72
1531558900.9,30842,17.94,73974.5,4.05,1.67,1.67,0,*71
1531558902.1,30843,17.94,73980.3,4.03,1.75,1.67,0,*75
1531558903.36,30844,17.94,73976.0,4.01,1.97,2.01,0,*7F
1531558904.59,30845,17.94,73968.3,4.01,2.61,2.59,0,*79
1531558905.78,30846,17.94,73916.0,3.99,3.29,3.29,0,*77
1531558907.01,30847,17.94,73888.3,3.99,3.33,3.33,0,*76
1531558908.21,30848,17.94,73876.3,4.01,3.25,3.29,0,*73
1531558909.44,30849,17.94,73876.8,4.01,3.53,3.63,0,*7D
1531558910.64,30850,17.94,73870.0,4.03,3.93,3.97,0,*70
1531558911.82,30851,17.94,73880.0,4.03,3.81,3.93,0,*76
1531558913.03,30852,17.94,73894.8,4.05,3.85,3.93,0,*77
1531558914.23,30853,17.94,73906.5,4.05,3.85,3.85,0,*71
1531558915.49,30854,17.94,73920.0,4.05,4.05,4.05,0,*76
1531558916.72,30855,17.94,73930.3,4.05,3.63,3.71,0,*74
1531558917.93,30856,17.94,73932.8,4.07,3.75,3.81,0,*7D
1531558919.15,30857,17.94,73940.3,4.07,3.97,3.97,0,*77
1531558920.37,30858,17.94,73946.8,4.09,3.89,3.89,0,*76
1531558921.57,30859,17.94,73948.8,4.11,4.01,4.15,0,*7B
1531558922.77,30860,17.94,73952.0,4.11,4.01,4.15,0,*71
1531558923.95,30861,17.94,73946.0,4.11,4.33,4.37,0,*71
1531558925.19,30862,17.94,73934.8,4.13,4.31,4.33,0,*76
1531558926.39,30863,17.94,73944.5,4.13,4.15,4.15,0,*75
1531558927.6,30864,17.94,73952.8,4.13,3.93,3.89,0,*79
1531558928.82,30865,17.94,73952.8,4.13,4.01,3.93,0,*7F
1531558930.08,30866,17.94,73938.5,4.17,3.53,3.49,0,*7F
1531558931.3,30867,17.94,73960.5,4.19,2.89,2.81,0,*73
1531558932.56,30868,17.94,73960.3,4.17,2.81,2.89,0,*72
1531558933.81,30869,17.94,73962.3,4.13,2.85,2.77,0,*72
1531558935.02,30870,17.94,73962.3,4.13,2.95,2.99,0,*7B
1531558936.27,30871,17.94,73944.8,4.13,2.47,2.59,0,*79
1531558937.5,30872,17.94,73936.5,4.13,2.73,2.61,0,*76
1531558938.74,30873,17.94,73918.3,4.09,2.59,2.61,0,*74
1531558939.94,30874,17.94,73922.8,4.09,2.35,2.35,0,*78
1531558941.14,30875,17.94,73918.8,4.09,2.31,2.31,0,*79
1531558942.35,30876,17.94,73910.8,4.09,1.75,1.75,0,*7A
1531558943.58,30877,17.94,73936.8,4.05,2.65,2.69,0,*7B
1531558944.84,30878,17.94,73936.3,4.05,3.11,3.15,0,*7C
1531558946.06,30879,17.94,73954.8,4.07,3.49,3.53,0,*70
1531558947.29,30880,17.94,73942.8,4.07,3.71,3.75,0,*79
1531558948.51,30881,17.94,73940.3,4.07,3.75,3.81,0,*77
1531558949.71,30882,17.94,73934.0,4.09,4.23,4.27,0,*75
1531558950.92,30883,17.94,73932.3,4.09,4.27,4.33,0,*75
1531558952.15,30884,17.94,73926.0,4.11,4.59,4.59,0,*7E
1531558953.38,30885,17.94,73936.3,4.13,4.81,4.75,0,*76
1531558954.64,30886,17.94,73926.5,4.13,4.63,4.71,0,*7D
1531558955.81,30887,17.94,73934.0,4.19,4.89,4.89,0,*75
1531558957.04,30888,17.94,73932.3,4.19,4.75,4.79,0,*76
1531558958.25,30889,17.94,73932.3,4.19,5.05,5.07,0,*79
1531558959.51,30890,17.94,73924.8,4.21,4.97,4.97,0,*78
1531558960.73,30891,17.94,73924.3,4.21,4.93,4.89,0,*72
1531558961.97,30892,17.94,73926.0,4.23,4.93,4.93,0,*78
1531558963.21,30893,17.94,73938.5,4.29,5.01,5.01,0,*73
1531558964.44,30894,17.94,73916.0,4.27,4.97,4.97,0,*7A
1531558965.64,30895,17.94,73904.8,4.27,4.97,5.07,0,*73
1531558966.82,30896,17.94,73928.5,4.29,5.15,5.15,0,*76
1531558968.06,30897,17.94,73908.5,4.29,5.05,5.05,0,*77
1531558969.32,30898,17.94,73912.5,4.31,4.93,5.01,0,*7B
1531558970.5,30899,17.94,73934.0,4.33,4.89,4.89,0,*72
1531558971.71,30900,17.94,73948.3,4.33,4.89,4.93,0,*78
1531558972.97,30901,17.94,73952.5,4.35,5.05,5.05,0,*74
1531558974.23,30902,17.94,73960.5,4.35,4.75,4.75,0,*77
1531558975.43,30903,17.94,73970.5,4.39,5.07,5.07,0,*7A
1531558976.64,30904,17.94,73980.3,4.39,5.11,5.11,0,*7D
1531558977.82,30905,17.94,73972.8,4.41,5.11,5.15,0,*77
1531558978.99,30906,17.94,73976.8,4.41,5.41,5.49,0,*78
1531558980.19,30907,17.94,73982.8,4.43,5.19,5.29,0,*70
1531558981.39,30908,17.94,73982.8,4.43,5.41,5.49,0,*74
1531558982.57,30909,17.94,73984.5,4.45,5.15,5.23,0,*7E
1531558983.78,30910,17.94,73988.8,4.47,5.15,5.19,0,*7D
1531558985.01,30911,17.94,73972.3,4.47,4.53,4.59,0,*7A
1531558986.19,30912,17.94,73982.8,4.49,5.07,5.15,0,*7E
1531558987.39,30913,17.94,73976.8,4.49,5.45,5.51,0,*79
1531558988.64,30914,17.94,74000.5,4.51,5.81,5.81,0,*72
1531558989.86,30915,17.94,73980.3,4.51,5.77,5.71,0,*75
1531558991.04,30916,17.94,73986.3,4.53,5.59,5.67,0,*7F
1531558992.26,30917,17.94,73988.3,4.55,5.71,5.81,0,*7A
1531558993.47,30918,17.94,73994.8,4.55,5.59,5.63,0,*73
1531558994.66,30919,17.94,73990.3,4.57,5.67,5.73,0,*7C
1531558995.85,30920,17.94,73992.5,4.61,5.67,5.67,0,*76
1531558997.05,30921,17.94,73990.8,4.57,5.33,5.51,0,*76
1531558998.23,30922,17.94,73984.5,4.61,5.33,5.33,0,*74
1531558999.48,30923,17.94,73982.8,4.61,4.71,4.71,0,*75
1531559000.71,30924,17.94,73964.8,4.63,4.85,4.97,0,*73
1531559001.92,30925,17.94,73946.3,4.63,5.07,5.07,0,*71
1531559003.1,30926,17.94,73968.0,4.65,5.23,5.23,0,*74
1531559004.28,30927,18.0,73978.8,4.65,5.07,5.07,0,*75
1531559005.46,30928,17.94,73970.5,4.65,4.53,4.53,0,*7A
1531559006.69,30929,17.94,73952.8,4.65,4.97,4.97,0,*7B
1531559007.95,30930,17.94,73962.0,4.67,5.01,4.93,0,*7B
1531559009.13,30931,17.94,73984.3,4.65,4.15,4.07,0,*71
1531559010.38,30932,17.94,73968.5,4.63,2.55,2.55,0,*77
1531559011.64,30933,18.0,73954.5,4.63,3.07,3.15,0,*75
1531559012.88,30934,17.94,73928.3,4.57,3.75,3.75,0,*76
1531559014.05,30935,17.94,73904.3,4.57,4.11,4.11,0,*77
1531559015.23,30936,17.94,73908.5,4.57,4.15,4.15,0,*74
1531559016.44,30937,17.94,73924.8,4.57,3.93,4.05,0,*7D
1531559017.69,30938,17.94,73940.3,4.55,4.59,4.59,0,*78
1531559018.89,30939,17.94,73946.0,4.53,3.63,3.71,0,*7C
1531559020.11,30940,17.94,73956.8,4.55,3.53,3.63,0,*74
1531559021.32,30941,17.94,73968.0,4.55,4.23,4.23,0,*76
1531559022.52,30942,17.94,73960.3,4.55,4.07,4.11,0,*72
1531559023.7,30943,17.94,73956.5,4.53,4.07,4.07,0,*72
1531559024.91,30944,17.94,73966.3,4.55,4.33,4.41,0,*76
1531559026.14,30945,17.94,73960.0,4.55,3.89,3.97,0,*7D
1531559027.37,30946,17.94,73942.5,4.55,3.59,3.71,0,*7B
1531559028.57,30947,17.94,73952.5,4.55,4.11,4.19,0,*78
1531559029.8,30948,17.94,73946.3,4.53,3.37,3.37,0,*79
1531559031.03,30949,17.94,73952.5,4.51,3.23,3.25,0,*7C
1531559032.25,30950,17.94,73954.0,4.49,3.45,3.53,0,*7C
1531559033.46,30951,17.94,73956.8,4.49,3.29,3.33,0,*71
1531559034.66,30952,18.0,73934.3,4.49,3.55,3.45,0,*78
1531559035.9,30953,17.94,73930.5,4.49,3.75,3.67,0,*7B
1531559037.13,30954,17.94,73928.3,4.49,3.75,3.75,0,*7F
1531559038.35,30955,17.94,73920.3,4.49,3.29,3.41,0,*70
1531559039.58,30956,17.94,73896.0,4.45,3.37,3.41,0,*70
1531559040.81,30957,17.94,73952.3,4.45,3.79,3.75,0,*7C
1531559042.02,30958,17.94,73966.8,4.45,4.31,4.33,0,*7D
1531559043.19,30959,17.94,73960.3,4.45,4.23,4.19,0,*77
1531559044.38,30960,17.94,73962.5,4.45,4.37,4.37,0,*74
1531559045.61,30961,17.94,73948.0,4.47,4.53,4.59,0,*7D
1531559046.84,30962,17.94,73956.5,4.47,4.71,4.81,0,*7B
1531559048.1,30963,17.94,73972.5,4.47,4.75,4.75,0,*75
1531559049.31,30964,17.94,73958.3,4.49,3.07,2.95,0,*76
1531559050.55,30965,17.94,73944.8,4.47,2.85,2.85,0,*73
1531559051.76,30966,17.94,73940.8,4.45,2.95,3.03,0,*7C
1531559052.94,30967,17.94,73932.3,4.45,3.25,3.25,0,*73
1531559054.12,30968,17.94,73922.8,4.45,3.29,3.29,0,*7C
1531559055.31,30969,17.94,73924.5,4.43,3.85,3.85,0,*7B
1531559056.51,30970,17.94,73920.3,4.43,4.19,4.11,0,*7B
1531559057.74,30971,17.94,73916.0,4.41,4.05,4.05,0,*70
1531559058.99,30972,17.94,73920.0,4.43,4.67,4.79,0,*7E
1531559060.25,30973,17.94,73936.5,4.43,4.93,5.01,0,*7A
1531559061.44,30974,17.94,73940.8,4.45,5.19,5.19,0,*71
1531559062.7,30975,17.94,73946.8,4.47,4.71,4.75,0,*76
1531559063.96,30976,17.94,73940.8,4.47,4.93,4.93,0,*71
1531559065.17,30977,17.94,73950.5,4.51,4.53,4.53,0,*77
1531559066.36,30978,17.94,73952.8,4.49,4.37,4.37,0,*71
1531559067.59,30979,17.94,73934.3,4.49,4.63,4.75,0,*77
1531559068.8,30980,17.94,73932.0,4.51,5.19,5.19,0,*7F
1531559070.02,30981,17.94,73924.3,4.49,5.27,5.27,0,*77
1531559071.25,30982,17.94,73906.5,4.51,5.23,5.27,0,*79
1531559072.46,30983,17.94,73914.8,4.53,4.85,4.97,0,*7D
1531559073.66,30984,17.94,73934.3,4.55,4.81,4.81,0,*7F
1531559074.83,30985,17.94,73958.0,4.53,4.27,4.27,0,*78
1531559076.04,30986,17.94,73960.8,4.55,4.45,4.53,0,*7A
1531559077.24,30987,17.94,73956.3,4.55,3.25,3.25,0,*7C
1531559078.47,30988,17.94,73958.5,4.53,2.55,2.39,0,*7F
1531559079.68,30989,17.94,73958.3,4.49,2.61,2.59,0,*74
1531559080.91,30990,17.94,73940.0,4.49,3.07,3.11,0,*70
1531559082.14,30991,17.94,73932.0,4.49,2.69,2.73,0,*7D
1531559083.34,30992,17.94,73926.3,4.45,2.65,2.59,0,*76
1531559084.55,30993,17.94,73924.5,4.47,2.95,2.95,0,*7A
1531559085.8,30994,17.94,73946.8,4.43,3.15,3.07,0,*7A
1531559087.06,30995,17.94,73950.3,4.43,2.17,2.05,0,*7B
1531559088.26,30996,17.94,73950.0,4.41,2.61,2.55,0,*7E
1531559089.45,30997,17.94,73944.8,4.35,2.35,2.27,0,*78
1531559090.7,30998,17.94,73950.5,4.35,2.85,2.81,0,*70
1531559091.95,30999,17.94,73948.3,4.35,3.53,3.53,0,*75
1531559093.15,31000,17.94,73952.5,4.39,4.33,4.33,0,*71
1531559094.35,31001,17.94,73962.8,4.35,4.41,4.49,0,*74
1531559095.54,31002,17.94,73966.3,4.39,4.81,4.81,0,*73
1531559096.75,31003,17.94,73960.3,4.39,5.07,5.11,0,*75
1531559097.99,31004,17.94,73962.8,4.41,4.97,5.01,0,*74
1531559099.2,31005,17.94,73974.0,4.41,5.01,5.07,0,*7D
1531559100.4,31006,17.94,73986.0,4.43,5.15,5.15,0,*7A
1531559101.59,31007,17.94,73980.8,4.45,5.27,5.29,0,*73
1531559102.76,31008,17.94,73990.0,4.45,5.29,5.37,0,*7D
1531559104.01,31009,18.0,73986.0,4.47,4.01,4.05,0,*75
1531559105.21,31010,17.94,73968.0,4.47,3.81,3.93,0,*7A
1531559106.41,31011,17.94,73972.0,4.47,4.45,4.49,0,*74
1531559107.61,31012,17.94,73966.0,4.47,4.85,4.81,0,*7F
1531559108.85,31013,17.94,73972.5,4.49,4.75,4.71,0,*70
1531559110.05,31014,17.94,73974.5,4.49,4.75,4.85,0,*7C
1531559111.26,31015,17.94,73976.8,4.49,4.75,4.85,0,*7D
1531559112.46,31016,18.0,73988.8,4.51,4.57,4.57,0,*78
1531559113.65,31017,17.94,74000.3,4.51,4.49,4.49,0,*79
1531559114.89,31018,17.94,73994.3,4.51,5.01,5.11,0,*77
1531559116.1,31019,17.94,73990.0,4.51,5.23,5.23,0,*77
1531559117.33,31020,17.94,73996.0,4.53,4.75,4.75,0,*7F
1531559118.55,31021,18.0,73986.5,4.55,5.23,5.23,0,*78
1531559119.74,31022,17.94,74008.0,4.55,5.37,5.37,0,*7B
1531559120.98,31023,17.94,74000.0,4.55,5.05,5.11,0,*7F
1531559122.18,31024,17.94,74008.8,4.55,4.57,4.57,0,*7D
1531559123.37,31025,17.94,73994.0,4.57,3.89,3.93,0,*75
1531559124.54,31026,17.94,73972.0,4.57,4.11,4.11,0,*7D
1531559125.72,31027,17.94,73968.5,4.57,4.15,4.23,0,*79
1531559126.89,31028,17.94,73954.5,4.57,4.23,4.15,0,*76
1531559128.06,31029,17.94,73944.3,4.57,4.49,4.49,0,*72
1531559129.27,31030,17.94,73944.0,4.57,4.85,4.93,0,*7D
1531559130.5,31031,17.94,73936.3,4.57,4.93,4.97,0,*7F
1531559131.68,31032,17.94,73944.5,4.57,5.07,5.15,0,*7B
1531559132.91,31033,17.94,73948.8,4.57,4.97,5.05,0,*73
1531559134.13,31034,17.94,73950.3,4.61,5.27,5.27,0,*7B
1531559135.33,31035,17.94,73956.8,4.61,4.75,4.81,0,*71
1531559136.58,31036,17.94,73958.5,4.61,4.71,4.71,0,*79
1531559137.75,31037,17.94,73964.3,4.61,4.27,4.27,0,*78
1531559138.98,31038,17.94,73964.0,4.61,3.53,3.53,0,*77
1531559140.21,31039,17.94,73966.8,4.61,3.11,3.07,0,*71
1531559141.44,31040,17.94,73970.0,4.57,3.11,3.03,0,*7E
1531559142.7,31041,17.94,73974.3,4.55,3.07,3.03,0,*7A
1531559143.93,31042,17.94,73966.5,4.53,2.85,2.89,0,*77
1531559145.14,31043,17.94,73964.5,4.51,2.61,2.65,0,*7C
1531559146.36,31044,17.94,73958.3,4.49,2.25,2.25,0,*76
1531559147.62,31045,17.94,73938.0,4.47,2.01,2.01,0,*79
1531559148.84,31046,17.94,73936.3,4.45,2.05,1.97,0,*70
1531559150.02,31047,17.94,73956.5,4.41,2.65,2.61,0,*79
1531559151.27,31048,17.94,73954.0,4.43,2.89,2.89,0,*70
1531559152.5,31049,17.94,73950.3,4.41,3.33,3.33,0,*73
1531559153.7,31050,17.94,73958.0,4.41,2.27,2.21,0,*7D
1531559154.95,31051,17.94,73948.5,4.35,1.63,1.67,0,*7D
1531559156.2,31052,17.94,73944.3,4.31,2.21,2.21,0,*7E
1531559157.43,31053,17.94,73948.8,4.33,2.59,2.59,0,*7D
1531559158.66,31054,17.94,73938.3,4.31,2.43,2.35,0,*79
1531559159.88,31055,17.94,73952.3,4.29,1.59,1.47,0,*7F
1531559161.13,31056,17.94,73952.0,4.25,1.55,1.51,0,*7B
1531559162.36,31057,17.94,73936.3,4.23,1.97,1.85,0,*7B
1531559163.53,31058,17.94,73954.3,4.23,2.31,2.31,0,*77
1531559164.78,31059,17.94,73958.0,4.21,1.97,1.97,0,*74
1531559165.98,31060,17.94,73972.0,4.21,1.83,1.75,0,*77
1531559167.2,31061,17.94,73956.5,4.19,1.47,1.43,0,*70
1531559168.45,31062,17.94,73948.0,4.17,1.71,1.71,0,*79
1531559169.7,31063,17.94,73964.0,4.13,1.67,1.63,0,*78
1531559170.94,31064,17.94,73966.0,4.13,1.51,1.43,0,*78
1531559172.14,31065,17.94,73960.3,4.09,1.01,0.97,0,*4F
1531559173.39,31066,17.94,73950.5,4.09,1.59,1.51,0,*7A
1531559174.62,31067,17.94,73968.5,4.07,2.21,2.17,0,*78
1531559175.85,31068,17.94,73972.0,4.07,2.39,2.51,0,*7C
1531559177.11,31069,17.94,73972.0,4.05,2.43,2.43,0,*71
1531559178.34,31070,17.94,73972.3,4.05,2.27,2.21,0,*7F
1531559179.59,31071,17.94,73970.0,4.05,2.21,2.21,0,*78
1531559180.82,31072,17.94,73974.3,4.03,2.39,2.39,0,*7D
1531559182.04,31073,17.94,73982.5,4.03,2.77,2.77,0,*7C
1531559183.25,31074,17.94,73978.0,4.01,2.61,2.61,0,*79
1531559184.48,31075,17.94,73974.3,4.01,2.85,2.95,0,*79
1531559185.68,31076,17.94,73970.8,4.01,2.91,2.91,0,*7B
1531559186.94,31077,17.94,73974.8,4.01,2.81,2.85,0,*7E
1531559188.17,31078,17.94,73982.8,4.01,2.51,2.31,0,*73
1531559189.42,31079,17.94,73974.8,4.01,2.13,2.09,0,*7F
1531559190.63,31080,17.94,73964.3,3.97,2.27,2.27,0,*7A
1531559191.86,31081,17.94,73960.3,3.99,2.21,2.13,0,*74
1531559193.09,31082,17.94,73964.0,3.99,2.13,2.01,0,*75
1531559194.35,31083,17.94,73952.5,3.97,2.17,1.97,0,*72
1531559195.55,31084,17.94,73958.3,3.97,1.83,1.83,0,*7E
1531559196.78,31085,17.94,73922.5,3.93,1.21,1.21,0,*7B
1531559197.98,31086,17.94,73940.5,3.93,1.41,1.29,0,*76
1531559199.17,31087,17.94,73948.5,3.89,1.47,1.41,0,*74
1531559200.43,31088,17.94,73950.3,3.87,1.13,1.13,0,*73
1531559201.63,31089,17.94,73958.8,3.87,1.79,1.79,0,*72
1531559202.86,31090,17.94,73964.3,3.87,1.79,1.85,0,*79
1531559204.1,31091,17.94,73978.0,3.83,2.09,2.09,0,*7F
1531559205.28,31092,17.94,73974.0,3.85,1.75,1.75,0,*7A
1531559206.53,31093,17.94,73978.5,3.83,2.05,2.05,0,*7D
1531559207.78,31094,17.94,73990.0,3.83,1.97,1.97,0,*7A
1531559208.97,31095,17.94,73986.5,3.81,1.79,1.71,0,*71
1531559210.2,31096,17.94,73986.3,3.81,2.05,2.05,0,*7A
1531559211.45,31097,17.94,73990.3,3.79,2.25,2.25,0,*7C
1531559212.68,31098,17.94,73996.8,3.81,2.39,2.39,0,*74
1531559213.9,31099,17.94,73994.5,3.81,2.25,2.25,0,*75
1531559215.16,31100,17.94,73992.3,3.79,2.39,2.39,0,*73
1531559216.38,31101,17.94,73998.5,3.79,2.39,2.35,0,*7E
1531559217.64,31102,17.94,74000.5,3.79,2.59,2.51,0,*79
1531559218.86,31103,17.94,73998.3,3.81,2.55,2.43,0,*70
1531559220.09,31104,17.94,73994.0,3.77,2.39,2.39,0,*79
1531559221.27,31105,17.94,73988.3,3.77,2.35,2.35,0,*78
1531559222.49,31106,17.94,73990.0,3.77,2.39,2.39,0,*7B
1531559223.72,31107,17.94,73998.5,3.77,2.39,2.39,0,*7A
1531559224.95,31108,17.94,74010.3,3.77,2.21,2.13,0,*74
1531559226.15,31109,17.94,73978.5,3.77,1.85,1.75,0,*7B
1531559227.39,31110,17.94,73982.3,3.75,1.59,1.59,0,*7E
1531559228.64,31111,17.94,73970.3,3.75,2.05,2.09,0,*73
1531559229.84,31112,17.94,73970.0,3.75,2.31,2.35,0,*78
1531559231.09,31113,17.94,73978.8,3.75,2.81,2.89,0,*75
1531559232.32,31114,17.94,73976.5,3.75,2.69,2.65,0,*76
1531559233.54,31115,17.94,73964.0,3.75,2.31,2.25,0,*7E
1531559234.76,31116,17.94,73972.5,3.75,2.89,2.91,0,*71
1531559235.96,31117,17.94,73966.3,3.75,2.99,2.99,0,*79
1531559237.21,31118,17.94,73982.5,3.75,2.81,2.77,0,*7F
1531559238.41,31119,17.94,73990.0,3.75,2.99,2.91,0,*7F
1531559239.64,31120,17.94,73982.0,3.75,2.65,2.59,0,*72
1531559240.88,31121,17.94,73950.8,3.75,1.97,1.97,0,*7C
1531559242.11,31122,17.94,73962.5,3.73,2.09,2.09,0,*79
1531559243.37,31123,17.94,73962.0,3.71,2.51,2.43,0,*79
1531559244.55,31124,17.94,73974.5,3.73,2.27,2.27,0,*7F
1531559245.78,31125,17.94,73964.8,3.73,2.17,2.21,0,*7B
1531559247.01,31126,17.94,73956.8,3.73,2.43,2.43,0,*7D
1531559248.26,31127,17.94,73958.5,3.71,2.51,2.55,0,*7A
1531559249.46,31128,17.94,73960.8,3.71,2.95,2.95,0,*71
1531559250.72,31129,17.94,73960.8,3.71,3.11,3.15,0,*74
1531559251.9,31130,17.94,73966.8,3.73,3.25,3.29,0,*76
1531559253.15,31131,17.94,73962.0,3.71,2.73,2.73,0,*79
1531559254.35,31132,17.94,73964.5,3.71,2.31,2.27,0,*7D
1531559255.61,31133,17.94,73960.8,3.71,2.51,2.51,0,*7B
1531559256.83,31134,17.94,73974.5,3.71,2.39,2.31,0,*74
1531559258.03,31135,17.94,73970.5,3.71,2.31,2.27,0,*7A
1531559259.24,31136,17.94,73944.3,3.71,1.83,1.79,0,*7B
1531559260.49,31137,17.94,73946.0,3.71,2.21,2.17,0,*7A
1531559261.75,31138,17.94,73944.3,3.67,2.13,2.13,0,*77
1531559263.0,31139,17.94,73932.3,3.67,2.25,2.25,0,*76
1531559264.23,31140,17.94,73934.8,3.65,2.25,2.25,0,*7A
1531559265.47,31141,17.94,73944.8,3.65,2.17,2.17,0,*7B
1531559266.7,31142,17.94,73942.5,3.65,1.85,1.89,0,*74
1531559267.9,31143,17.94,73938.8,3.63,1.63,1.75,0,*78
1531559269.12,31144,17.94,73930.0,3.63,2.13,2.21,0,*79
1531559270.35,31145,17.94,73948.0,3.63,2.43,2.43,0,*79
1531559271.58,31146,17.94,73950.8,3.63,2.59,2.59,0,*7A
1531559272.81,31147,17.94,73948.0,3.63,2.55,2.43,0,*7C
1531559274.04,31148,17.94,73948.5,3.63,2.43,2.43,0,*74
1531559275.27,31149,17.94,73952.0,3.63,2.47,2.47,0,*75
1531559276.44,31150,17.94,73958.5,3.63,2.35,2.35,0,*7D
1531559277.67,31151,17.94,73964.8,3.63,2.05,2.09,0,*70
1531559278.92,31152,17.94,73968.3,3.61,1.85,1.93,0,*7A
1531559280.17,31153,17.94,73950.5,3.61,2.05,2.09,0,*70
1531559281.41,31154,17.94,73932.3,3.61,2.21,2.21,0,*7B
1531559282.61,31155,17.94,73940.5,3.61,2.31,2.35,0,*7E
1531559283.81,31156,17.94,73950.8,3.59,2.61,2.55,0,*75
1531559285.06,31157,17.94,73960.3,3.61,2.77,2.81,0,*71
1531559286.25,31158,17.94,73962.3,3.63,2.65,2.65,0,*75
1531559287.47,31159,17.94,73956.5,3.61,2.25,2.31,0,*73
1531559288.72,31160,17.94,73946.0,3.61,2.43,2.47,0,*78
1531559289.97,31161,17.94,73948.8,3.61,2.89,2.89,0,*7D
1531559291.22,31162,17.94,73956.0,3.61,3.03,3.07,0,*7A
1531559292.48,31163,17.94,73962.3,3.61,3.15,3.15,0,*7F
1531559293.72,31164,17.94,73966.8,3.63,3.15,3.15,0,*7A
1531559294.95,31165,17.94,73966.3,3.63,3.03,3.07,0,*7F
1531559296.21,31166,17.94,73962.8,3.61,3.07,3.07,0,*7A
1531559297.44,31167,17.94,73970.3,3.63,3.15,3.15,0,*79
1531559298.65,31168,17.94,73976.0,3.63,2.69,2.65,0,*7A
1531559299.87,31169,17.94,73986.8,3.63,2.89,2.89,0,*77
1531559301.1,31170,17.94,73976.0,3.63,2.69,2.77,0,*70
1531559302.33,31171,17.94,73980.5,3.61,3.03,2.95,0,*72
1531559303.5,31172,17.94,73976.0,3.63,2.91,2.91,0,*7D
1531559304.74,31173,17.94,73982.0,3.63,3.07,3.15,0,*7F
1531559305.94,31174,17.94,73988.5,3.63,3.29,3.19,0,*78
1531559307.17,31175,17.94,73994.0,3.63,3.15,3.15,0,*7A
1531559308.4,31176,17.94,73980.3,3.65,3.19,3.19,0,*7F
1531559309.58,31177,17.94,73970.5,3.65,3.29,3.29,0,*7E
1531559310.77,31178,17.94,73990.0,3.65,3.29,3.29,0,*71
1531559312.0,31179,17.94,73998.5,3.65,3.33,3.33,0,*70
1531559313.23,31180,17.94,73980.5,3.67,3.33,3.29,0,*7F
1531559314.48,31181,17.94,73990.0,3.67,3.19,3.19,0,*75
1531559315.72,31182,17.94,73988.8,3.67,3.19,3.19,0,*76
1531559316.99,31183,17.94,73988.0,3.67,3.07,3.07,0,*77
1531559318.22,31184,17.94,73994.3,3.67,2.73,2.61,0,*73
1531559319.42,31185,17.94,73996.8,3.65,2.61,2.69,0,*7B
1531559320.63,31186,17.94,73998.8,3.65,2.69,2.61,0,*78
1531559321.87,31187,17.94,73998.8,3.65,2.51,2.51,0,*71
1531559323.13,31188,17.94,73996.8,3.67,2.47,2.59,0,*73
1531559324.34,31189,17.94,74002.8,3.65,2.35,2.39,0,*73
1531559325.56,31190,17.94,74006.8,3.65,2.69,2.69,0,*77
1531559326.79,31191,17.94,74004.8,3.65,2.73,2.81,0,*7B
1531559328.03,31192,17.94,73992.5,3.65,2.81,2.81,0,*75
1531559329.22,31193,17.94,73986.8,3.65,2.91,2.91,0,*74
1531559330.4,31194,17.94,73982.5,3.65,2.95,2.95,0,*73
1531559331.63,31195,17.94,73976.8,3.65,3.11,3.11,0,*72
1531559332.82,31196,17.94,73972.0,3.65,3.29,3.29,0,*71